OK2SZ-6 Weather Reports


time (UTC)temp
F
wind
direction
speed
knots
gust
knots
rain 1hr
in
rain 24hr
in
rain mn
in
humidity
%
barometer
mb
20260507214003 56 259 0.0 2.6 0.00 0.02 0.02 74 1013.5
20260507213503 56 293 0.0 1.7 0.00 0.02 0.02 74 1013.5
20260507213003 56 321 0.0 1.7 0.00 0.02 0.02 74 1013.5
20260507212503 56 321 0.0 1.7 0.00 0.02 0.02 74 1013.6
20260507212024 56 290 0.0 1.7 0.00 0.02 0.02 75 1013.6
20260507211503 56 16 0.0 1.7 0.00 0.02 0.02 74 1013.3
20260507211003 56 341 0.0 1.7 0.00 0.02 0.02 74 1013.5
20260507210503 55 359 0.0 0.9 0.00 0.02 0.02 75 1013.5
20260507210024 54 38 0.0 0.9 0.00 0.02 0.02 76 1013.5
20260507205503 54 62 0.0 0.9 0.00 0.02 0.02 79 1013.5
20260507205024 54 66 0.0 0.9 0.00 0.02 0.02 79 1013.2
20260507204504 54 73 0.0 0.9 0.00 0.02 0.02 79 1013.2
20260507204003 53 71 0.0 0.9 0.00 0.02 0.02 81 1013.0
20260507203524 53 67 0.0 0.9 0.00 0.02 0.02 82 1013.0
20260507203003 54 45 0.0 0.9 0.00 0.02 0.02 80 1013.0
20260507202503 54 43 0.0 1.7 0.00 0.02 0.02 78 1012.9
20260507202004 54 40 0.0 1.7 0.00 0.02 0.02 78 1012.9
20260507201503 53 38 0.0 1.7 0.00 0.02 0.02 80 1012.8
20260507201003 53 34 0.0 0.9 0.00 0.02 0.02 83 1012.8
20260507200503 53 34 0.0 0.9 0.00 0.02 0.02 81 1012.7
20260507200003 53 34 0.0 0.9 0.00 0.02 0.02 82 1012.6
20260507195503 53 34 0.0 0.9 0.00 0.02 0.02 82 1012.4
20260507195003 54 34 0.0 0.9 0.00 0.02 0.02 82 1012.3
20260507194503 54 0 0.0 0.0 0.00 0.02 0.02 81 1012.3
20260507194003 54 34 0.0 0.9 0.00 0.02 0.02 77 1012.0
20260507193503 55 34 0.0 0.9 0.00 0.02 0.02 77 1012.5
20260507193003 55 34 0.0 0.9 0.00 0.02 0.02 75 1012.1
20260507192524 54 0 0.0 0.0 0.00 0.02 0.02 76 1012.2
20260507192003 54 0 0.0 0.0 0.00 0.02 0.02 77 1012.1
20260507191503 54 0 0.0 0.0 0.00 0.02 0.02 78 1012.0
20260507191003 54 0 0.0 0.0 0.00 0.02 0.02 77 1011.9
20260507190504 55 0 0.0 0.0 0.00 0.02 0.02 77 1011.8
20260507190004 55 0 0.0 0.0 0.00 0.02 0.02 78 1011.8
20260507185503 55 0 0.0 0.0 0.00 0.02 0.02 77 1011.8
20260507185003 56 0 0.0 0.0 0.00 0.02 0.02 79 1011.7
20260507184503 56 0 0.0 0.0 0.00 0.02 0.02 82 1011.4
20260507184003 57 0 0.0 0.0 0.00 0.02 0.02 79 1011.5
20260507183503 58 0 0.0 0.0 0.00 0.02 0.02 76 1011.4
20260507183003 59 0 0.0 0.0 0.00 0.02 0.02 70 1011.2
20260507182503 59 0 0.0 0.0 0.00 0.02 0.02 67 1011.1
20260507182004 59 34 0.0 0.9 0.00 0.02 0.02 67 1011.1
20260507181503 60 34 0.0 0.9 0.00 0.02 0.02 67 1011.3
20260507181024 60 34 0.0 0.9 0.00 0.02 0.02 66 1011.3
20260507180524 60 0 0.0 0.0 0.00 0.02 0.02 65 1011.1
20260507180024 61 34 0.0 0.9 0.00 0.02 0.02 64 1011.2
20260507175503 61 34 0.0 0.9 0.00 0.02 0.02 63 1010.9
20260507175024 62 39 0.0 0.9 0.00 0.02 0.02 60 1011.0
20260507174503 62 42 0.0 0.9 0.00 0.02 0.02 58 1011.0
20260507174003 62 50 0.0 2.6 0.00 0.02 0.02 57 1011.1
20260507173503 62 349 0.0 2.6 0.00 0.02 0.02 57 1010.9
20260507173004 63 334 0.0 1.7 0.00 0.02 0.02 57 1010.8
20260507172524 63 40 0.0 1.7 0.00 0.02 0.02 57 1010.8
20260507172003 63 58 0.0 1.7 0.00 0.02 0.02 56 1010.8
20260507171503 64 69 0.0 1.7 0.00 0.02 0.02 57 1010.5
20260507171003 64 55 0.0 1.7 0.00 0.02 0.02 57 1010.4
20260507170503 64 24 0.0 1.7 0.00 0.02 0.02 56 1010.4
20260507170024 64 34 0.0 1.7 0.00 0.02 0.02 56 1010.5
20260507165503 64 35 0.0 1.7 0.00 0.02 0.02 57 1010.8
20260507165003 63 59 0.9 2.6 0.00 0.02 0.02 57 1010.4
20260507164524 63 74 0.9 2.6 0.00 0.02 0.02 58 1010.4
20260507164003 63 68 0.0 1.7 0.00 0.02 0.02 57 1010.2
20260507163503 62 79 0.0 1.7 0.00 0.02 0.02 69 1010.5
20260507163003 61 86 0.0 0.9 0.00 0.02 0.02 78 1010.2
20260507162503 60 86 0.0 0.9 0.00 0.02 0.02 83 1010.2
20260507162003 61 86 0.0 0.9 0.00 0.02 0.02 82 1010.2
20260507161524 61 85 0.0 0.9 0.00 0.02 0.02 80 1010.2
20260507161003 61 93 0.0 1.7 0.00 0.02 0.02 78 1009.9
20260507160024 62 92 0.9 1.7 0.00 0.02 0.02 75 1009.9
20260507155503 63 103 0.9 1.7 0.00 0.02 0.02 78 1010.0
20260507155003 63 106 0.0 1.7 0.00 0.02 0.02 79 1009.9
20260507154503 63 109 0.0 0.9 0.00 0.02 0.02 73 1010.2
20260507154003 64 113 0.0 2.6 0.00 0.02 0.02 71 1010.2
20260507153524 65 171 0.9 2.6 0.00 0.02 0.02 63 1010.2
20260507153024 66 200 0.9 2.6 0.00 0.02 0.02 58 1010.5
20260507152503 66 145 0.9 5.2 0.00 0.02 0.02 55 1010.2
20260507152003 65 129 0.9 5.2 0.00 0.02 0.02 63 1010.2
20260507151504 66 130 0.9 5.2 0.00 0.02 0.02 56 1010.2
20260507151003 64 104 0.9 1.7 0.01 0.02 0.02 61 1010.2
20260507150524 63 109 0.9 1.7 0.01 0.02 0.02 75 1010.2
20260507150004 64 224 0.9 2.6 0.01 0.02 0.02 72 1010.4
20260507145503 64 217 0.9 2.6 0.01 0.02 0.02 67 1010.2
20260507145003 64 111 0.9 2.6 0.01 0.02 0.02 64 1010.2
20260507144503 63 105 0.9 2.6 0.01 0.02 0.02 69 1010.4
20260507144003 64 99 0.9 2.6 0.01 0.02 0.02 69 1010.2
20260507143503 63 92 1.7 2.6 0.01 0.02 0.02 74 1010.0
20260507143003 61 97 0.9 2.6 0.01 0.02 0.02 80 1010.2
20260507142503 61 104 0.9 1.7 0.01 0.02 0.02 82 1010.2
20260507142003 61 115 0.9 1.7 0.02 0.02 0.02 79 1010.0
20260507141503 63 162 0.9 1.7 0.02 0.02 0.02 79 1010.0
20260507141003 64 130 0.9 1.7 0.01 0.01 0.01 74 1010.2
20260507140503 64 94 0.9 2.6 0.01 0.01 0.01 67 1010.2
20260507140004 64 91 1.7 3.5 0.01 0.01 0.01 65 1010.2
20260507135524 64 84 1.7 3.5 0.01 0.01 0.01 57 1010.2
20260507135003 66 83 0.9 1.7 0.01 0.01 0.01 63 1010.2
20260507134503 65 98 0.0 0.9 0.01 0.01 0.01 63 1010.2
20260507134003 63 93 0.9 1.7 0.01 0.01 0.01 68 1010.2
20260507133503 62 96 0.9 2.6 0.01 0.01 0.01 79 1010.2
20260507133003 61 129 0.9 2.6 0.01 0.01 0.01 82 1010.0
20260507132524 62 236 0.9 7.0 0.01 0.01 0.01 70 1010.4
20260507132003 63 237 1.7 7.0 0.00 0.00 0.00 61 1010.2
20260507131503 64 224 1.7 7.0 0.00 0.00 0.00 58 1010.6
20260507131024 66 146 0.9 7.0 0.00 0.00 0.00 60 1010.2
20260507130503 66 141 0.9 7.0 0.00 0.00 0.00 60 1010.2
20260507130004 66 203 0.9 7.0 0.00 0.00 0.00 53 1010.2
20260507125503 67 244 1.7 3.5 0.00 0.00 0.00 48 1010.3
20260507125024 67 237 1.7 6.1 0.00 0.00 0.00 48 1010.2
20260507124503 68 215 1.7 6.1 0.00 0.00 0.00 44 1010.2
20260507124024 69 178 0.9 3.5 0.00 0.00 0.00 44 1010.2
20260507123503 69 182 0.9 5.2 0.00 0.00 0.00 45 1010.3
20260507123003 69 208 0.9 5.2 0.00 0.00 0.00 45 1010.2
20260507122503 67 229 0.9 6.1 0.00 0.00 0.00 48 1010.2
20260507122003 67 230 1.7 6.1 0.00 0.00 0.00 48 1010.2
20260507121503 68 232 1.7 6.1 0.00 0.00 0.00 48 1010.2
20260507121024 68 236 2.6 5.2 0.00 0.00 0.00 45 1010.3
20260507120503 67 231 2.6 7.8 0.00 0.00 0.00 46 1010.2
20260507120004 68 229 1.7 7.8 0.00 0.00 0.00 46 1010.2
20260507115503 70 238 1.7 7.0 0.00 0.00 0.00 44 1010.2
20260507115003 68 233 2.6 7.0 0.00 0.00 0.00 44 1010.2
20260507114504 67 224 2.6 7.0 0.00 0.00 0.00 46 1010.2
20260507114003 68 224 2.6 7.0 0.00 0.00 0.00 46 1010.2
20260507113503 68 233 2.6 7.0 0.00 0.00 0.00 46 1010.2
20260507113024 69 235 3.5 9.6 0.00 0.00 0.00 45 1010.5
20260507112503 70 234 5.2 13.0 0.00 0.00 0.00 44 1010.4
20260507112004 69 203 4.3 13.0 0.00 0.00 0.00 45 1010.4
20260507111504 69 115 3.5 8.7 0.00 0.00 0.00 47 1010.3
20260507111003 70 137 2.6 7.8 0.00 0.00 0.00 48 1010.2
20260507110503 69 133 2.6 7.8 0.00 0.00 0.00 50 1010.3
20260507110003 68 108 2.6 7.8 0.00 0.00 0.00 52 1010.2
20260507105524 68 136 1.7 5.2 0.00 0.00 0.00 51 1010.2
20260507105003 70 204 1.7 5.2 0.00 0.00 0.00 49 1010.3
20260507104504 69 140 1.7 7.8 0.00 0.00 0.00 51 1010.2
20260507104024 68 160 2.6 7.8 0.00 0.00 0.00 53 1010.4
20260507103524 69 191 2.6 7.8 0.00 0.00 0.00 55 1010.3
20260507103003 69 143 1.7 5.2 0.00 0.00 0.00 57 1010.4
20260507102524 68 188 1.7 5.2 0.00 0.00 0.00 56 1010.5
20260507102003 68 165 1.7 3.5 0.00 0.00 0.00 58 1010.6
20260507101503 68 173 0.9 3.5 0.00 0.00 0.00 54 1010.4
20260507101003 68 151 0.9 3.5 0.00 0.00 0.00 56 1010.4
20260507100503 68 160 0.9 6.1 0.00 0.00 0.00 56 1010.4
20260507100004 66 209 1.7 6.1 0.00 0.00 0.00 58 1010.6
20260507095504 65 222 1.7 6.1 0.00 0.00 0.00 62 1010.6
20260507095003 64 228 1.7 6.1 0.00 0.00 0.00 63 1010.8
20260507094503 66 230 1.7 5.2 0.00 0.00 0.00 61 1010.5
20260507094003 65 235 1.7 5.2 0.00 0.00 0.00 61 1010.3
20260507093503 64 237 1.7 5.2 0.00 0.00 0.00 64 1010.5
20260507093003 63 236 1.7 5.2 0.00 0.00 0.00 65 1010.3
20260507092504 63 237 0.9 5.2 0.00 0.00 0.00 64 1010.5
20260507092003 64 237 1.7 6.1 0.00 0.00 0.00 64 1010.4
20260507091503 62 238 1.7 6.1 0.00 0.00 0.00 64 1010.3
20260507091003 63 239 0.9 2.6 0.00 0.00 0.00 64 1010.3
20260507090503 63 239 0.9 2.6 0.00 0.00 0.00 63 1010.2
20260507090004 63 244 0.9 5.2 0.00 0.00 0.00 63 1010.2
20260507085503 62 242 0.9 5.2 0.00 0.00 0.00 64 1010.2
20260507085003 62 240 1.7 5.2 0.00 0.00 0.00 65 1010.2
20260507084503 62 239 1.7 6.1 0.00 0.00 0.00 66 1010.0
20260507084003 62 237 2.6 6.1 0.00 0.00 0.00 65 1009.9
20260507083503 61 236 2.6 6.1 0.00 0.00 0.00 66 1010.0
20260507083004 62 239 1.7 6.1 0.00 0.00 0.00 66 1009.9
20260507082503 64 240 1.7 5.2 0.00 0.00 0.00 63 1010.0
20260507082003 63 239 1.7 5.2 0.00 0.00 0.00 64 1009.7
20260507081503 62 238 0.9 5.2 0.00 0.00 0.00 67 1009.9
20260507081024 61 239 0.9 3.5 0.00 0.00 0.00 67 1010.0
20260507080503 61 238 1.7 6.1 0.00 0.00 0.00 69 1009.9
20260507080004 60 236 1.7 6.1 0.00 0.00 0.00 69 1009.9
20260507075503 61 237 0.9 5.2 0.00 0.00 0.00 69 1009.9
20260507075003 61 239 0.9 3.5 0.00 0.00 0.00 69 1009.5
20260507074503 61 238 0.9 5.2 0.00 0.00 0.00 69 1009.7
20260507074003 61 236 1.7 7.0 0.00 0.00 0.00 71 1009.8
20260507073524 60 236 2.6 7.0 0.00 0.00 0.00 71 1009.9
20260507073024 60 237 2.6 7.0 0.00 0.00 0.00 72 1009.7
20260507072503 60 239 1.7 5.2 0.00 0.00 0.00 72 1009.9
20260507072003 60 238 1.7 5.2 0.00 0.00 0.00 71 1009.6
20260507071504 60 239 1.7 5.2 0.00 0.00 0.00 72 1009.5
20260507071003 60 234 1.7 5.2 0.00 0.00 0.00 73 1009.7
20260507070503 60 233 0.9 5.2 0.00 0.00 0.00 72 1009.5
20260507070024 60 241 0.9 5.2 0.00 0.00 0.00 73 1009.6
20260507065525 60 241 0.9 5.2 0.00 0.00 0.00 77 1009.3
20260507065003 59 239 2.6 7.0 0.00 0.00 0.00 77 1009.4
20260507064504 58 239 1.7 7.0 0.00 0.00 0.00 79 1009.4
20260507064004 59 240 0.9 3.5 0.00 0.00 0.00 79 1009.4
20260507063503 60 242 0.9 2.6 0.00 0.00 0.00 79 1009.4
20260507063003 59 240 0.9 3.5 0.00 0.00 0.00 80 1009.3
20260507062503 58 242 0.9 3.5 0.00 0.00 0.00 82 1009.3
20260507062003 57 243 0.9 3.5 0.00 0.00 0.00 83 1009.3
20260507061503 57 241 0.9 3.5 0.00 0.00 0.00 83 1009.1
20260507061003 57 240 0.9 3.5 0.00 0.00 0.00 83 1009.4
20260507060503 57 241 0.9 3.5 0.00 0.00 0.00 85 1009.1
20260507060004 57 242 0.0 1.7 0.00 0.00 0.00 84 1008.9
20260507055503 56 0 0.0 0.0 0.00 0.00 0.00 86 1009.1
20260507055024 56 0 0.0 0.0 0.00 0.00 0.00 86 1009.1
20260507054503 55 0 0.0 0.0 0.00 0.00 0.00 87 1009.2
20260507054003 54 0 0.0 0.0 0.00 0.00 0.00 87 1008.9
20260507053503 54 0 0.0 0.0 0.00 0.00 0.00 89 1008.6
20260507053024 53 251 0.0 0.9 0.00 0.00 0.00 89 1008.9
20260507052503 52 250 0.0 0.9 0.00 0.00 0.00 91 1008.9
20260507052003 52 250 0.0 0.9 0.00 0.00 0.00 92 1008.7
20260507051503 52 250 0.0 0.9 0.00 0.00 0.00 91 1008.7
20260507051003 51 0 0.0 0.0 0.00 0.00 0.00 92 1008.7
20260507050503 51 252 0.0 0.9 0.00 0.00 0.00 93 1008.7
20260507050024 50 252 0.0 0.9 0.00 0.00 0.00 93 1008.5
20260507045503 50 250 0.0 0.9 0.00 0.00 0.00 94 1008.7
20260507045003 50 249 0.0 0.9 0.00 0.00 0.00 94 1008.5
20260507044503 50 248 0.0 0.9 0.00 0.00 0.00 94 1008.6
20260507044003 50 248 0.0 0.9 0.00 0.00 0.00 96 1008.2
20260507043503 49 0 0.0 0.0 0.00 0.00 0.00 96 1008.4
20260507043003 49 248 0.0 0.9 0.00 0.00 0.00 96 1008.2
20260507042503 49 248 0.0 0.9 0.00 0.00 0.00 96 1008.0
20260507042024 49 0 0.0 0.0 0.00 0.00 0.00 96 1008.0
20260507041524 49 0 0.0 0.0 0.00 0.00 0.00 96 1008.0
20260507041003 49 0 0.0 0.0 0.00 0.00 0.00 96 1007.8
20260507040503 49 248 0.0 0.9 0.00 0.00 0.00 96 1007.9
20260507040004 49 248 0.0 0.9 0.00 0.00 0.00 97 1007.8
20260507035504 49 248 0.0 0.9 0.00 0.00 0.00 97 1007.7
20260507035003 49 0 0.0 0.0 0.00 0.00 0.00 97 1007.8
20260507034503 48 0 0.0 0.0 0.00 0.00 0.00 97 1007.6
20260507034003 48 0 0.0 0.0 0.00 0.00 0.00 97 1007.8
20260507033503 48 0 0.0 0.0 0.00 0.00 0.00 97 1007.7
20260507033003 49 0 0.0 0.0 0.00 0.00 0.00 97 1007.7
20260507032525 49 0 0.0 0.0 0.00 0.00 0.00 97 1007.9
20260507032024 49 249 0.0 0.9 0.00 0.00 0.00 97 1007.3
20260507031503 49 249 0.0 0.9 0.00 0.00 0.00 97 1007.5
20260507031003 49 249 0.0 0.9 0.00 0.00 0.00 97 1007.3
20260507030503 49 0 0.0 0.0 0.00 0.00 0.00 97 1007.0
20260507030004 49 0 0.0 0.0 0.00 0.00 0.00 96 1007.2
20260507025503 49 0 0.0 0.0 0.00 0.00 0.00 96 1007.3
20260507025003 49 0 0.0 0.0 0.00 0.00 0.00 96 1007.1
20260507024503 49 250 0.0 1.7 0.00 0.00 0.00 95 1006.9
20260507024003 50 253 0.0 1.7 0.00 0.00 0.00 95 1006.8
20260507023524 50 254 0.0 1.7 0.00 0.00 0.00 95 1007.1
20260507023003 50 246 0.0 0.9 0.00 0.00 0.00 95 1007.0
20260507022524 50 246 0.0 0.9 0.00 0.00 0.00 94 1006.8
20260507022003 51 246 0.0 0.9 0.00 0.00 0.00 94 1006.9
20260507021503 50 0 0.0 0.0 0.00 0.00 0.00 94 1006.9
20260507021003 51 246 0.0 0.9 0.00 0.00 0.00 93 1006.9
20260507020503 52 246 0.0 0.9 0.00 0.00 0.00 92 1006.8
20260507020025 52 246 0.0 0.9 0.00 0.00 0.00 92 1007.2
20260507015503 52 246 0.0 0.9 0.00 0.00 0.00 91 1006.7
20260507015004 53 246 0.0 0.9 0.00 0.00 0.00 91 1006.5
20260507014503 52 246 0.0 0.9 0.00 0.00 0.00 91 1006.7
20260507014003 52 246 0.0 0.9 0.00 0.00 0.00 92 1006.6
20260507013524 52 0 0.0 0.0 0.00 0.00 0.00 93 1006.5
20260507013004 52 245 0.0 0.9 0.00 0.00 0.00 92 1006.5
20260507012503 52 243 0.0 0.9 0.00 0.00 0.00 92 1006.5
20260507012003 52 243 0.0 0.9 0.00 0.00 0.00 91 1006.3
20260507011503 53 245 0.0 0.9 0.00 0.00 0.00 90 1006.3
20260507011003 54 247 0.0 0.9 0.00 0.00 0.00 89 1006.0
20260507010503 54 247 0.0 0.9 0.00 0.00 0.00 88 1005.9
20260507010024 54 248 0.0 0.9 0.00 0.00 0.00 88 1005.9
20260507005503 54 249 0.0 0.9 0.00 0.00 0.00 87 1006.0
20260507005003 54 251 0.0 0.9 0.00 0.00 0.00 88 1006.0
20260507004503 54 251 0.0 0.9 0.00 0.00 0.00 89 1005.8
20260507004003 54 251 0.0 0.9 0.00 0.00 0.00 89 1005.8
20260507003503 54 251 0.0 0.9 0.00 0.00 0.00 89 1005.8
20260507003003 54 0 0.0 0.0 0.00 0.00 0.00 89 1005.5
20260507002524 54 0 0.0 0.0 0.00 0.00 0.00 89 1005.3
20260507002025 53 0 0.0 0.0 0.00 0.00 0.00 88 1005.4
20260507001503 54 0 0.0 0.0 0.00 0.00 0.00 88 1005.3
20260507001003 54 0 0.0 0.0 0.00 0.00 0.00 88 1005.2
20260507000525 54 0 0.0 0.0 0.00 0.00 0.00 87 1005.2
20260507000004 54 256 0.0 0.9 0.00 0.00 0.00 87 1005.1
20260506235503 54 256 0.0 0.9 0.00 0.00 0.00 87 1005.2
20260506235003 55 0 0.0 0.0 0.00 0.00 0.00 86 1005.3
20260506234504 55 256 0.0 0.9 0.00 0.00 0.00 85 1004.9
20260506234024 55 256 0.0 0.9 0.00 0.00 0.00 85 1004.6
20260506233503 56 257 0.0 1.7 0.00 0.00 0.00 83 1004.5
20260506233025 57 256 0.9 1.7 0.00 0.00 0.00 82 1004.3
20260506232503 58 259 0.9 1.7 0.00 0.00 0.00 80 1004.6
20260506232003 58 262 0.9 2.6 0.00 0.00 0.00 79 1004.4
20260506231503 58 260 0.9 2.6 0.00 0.00 0.00 79 1004.4
20260506231024 58 255 0.9 2.6 0.00 0.00 0.00 79 1004.5
20260506230504 58 245 0.9 2.6 0.00 0.00 0.00 78 1004.6
20260506230003 58 236 0.9 2.6 0.00 0.00 0.00 78 1004.5
20260506225503 58 200 0.9 2.6 0.00 0.00 0.00 78 1004.5
20260506225003 59 166 0.0 1.7 0.00 0.00 0.00 77 1004.2
20260506224504 59 218 0.0 0.9 0.00 0.00 0.00 77 1004.6
20260506224003 59 233 0.0 0.9 0.00 0.00 0.00 77 1004.4
20260506223503 59 232 0.0 0.9 0.00 0.00 0.00 76 1004.3
20260506223003 60 198 0.0 2.6 0.00 0.00 0.00 75 1004.1
20260506222504 60 211 0.9 2.6 0.00 0.00 0.00 74 1004.0
20260506222003 60 225 0.9 2.6 0.00 0.00 0.00 74 1004.2
20260506221504 61 217 0.9 2.6 0.00 0.00 0.00 73 1004.2
20260506221003 61 195 0.9 2.6 0.00 0.00 0.00 73 1004.0
20260506220503 61 148 0.9 3.5 0.00 0.00 0.00 73 1004.0
20260506220004 61 130 0.9 5.2 0.00 0.00 0.00 72 1004.1
20260506215503 61 186 0.9 5.2 0.00 0.00 0.00 72 1004.1
20260506215004 61 181 0.9 3.5 0.00 0.00 0.00 71 1004.1
20260506214503 62 203 0.9 3.5 0.00 0.00 0.00 71 1004.1